QPF
0.00 0.00 0.00 0.00 0.01 0.01 0.01 0.01 0.01 0.01 0.00 0.00 0.00 0.00 0.00 0.00 0.01 0.01 0.01 0.01 0.01 0.01 0.01 0.01 0.01 0.01 0.02 0.02 0.02 0.03 0.04 0.06 0.08 0.10 0.11 0.12 0.12 0.11 0.11 0.09 0.08 0.08 0.08
0.00 0.00 0.00 0.00 0.00 0.01 0.02 0.01 0.01 0.01 0.01 0.00 0.00 0.00 0.00 0.00 0.01 0.01 0.01 0.01 0.01 0.01 0.01 0.01 0.01 0.01 0.02 0.02 0.02 0.02 0.04 0.05 0.07 0.10 0.12 0.13 0.12 0.11 0.09 0.09 0.08 0.06 0.06
0.00 0.01 0.01 0.01 0.00 0.00 0.01 0.01 0.01 0.01 0.01 0.01 0.01 0.01 0.01 0.00 0.01 0.01 0.01 0.02 0.02 0.01 0.02 0.02 0.02 0.02 0.02 0.02 0.02 0.03 0.03 0.05 0.07 0.08 0.10 0.11 0.11 0.09 0.08 0.07 0.06 0.05 0.03
0.01 0.01 0.01 0.01 0.01 0.01 0.00 0.00 0.00 0.01 0.01 0.01 0.01 0.01 0.01 0.01 0.01 0.01 0.01 0.02 0.02 0.02 0.02 0.03 0.03 0.02 0.02 0.03 0.03 0.03 0.04 0.07 0.08 0.09 0.10 0.09 0.09 0.08 0.08 0.07 0.06 0.05 0.04
0.01 0.01 0.01 0.01 0.01 0.01 0.01 0.01 0.01 0.01 0.01 0.00 0.01 0.01 0.01 0.01 0.01 0.00 0.01 0.01 0.01 0.02 0.03 0.03 0.04 0.04 0.03 0.03 0.03 0.04 0.06 0.08 0.08 0.08 0.07 0.07 0.07 0.06 0.05 0.04 0.04 0.04 0.03
0.01 0.01 0.01 0.01 0.01 0.02 0.01 0.01 0.01 0.01 0.01 0.01 0.01 0.03 0.03 0.02 0.01 0.00 0.00 0.01 0.01 0.02 0.04 0.04 0.06 0.06 0.05 0.04 0.04 0.05 0.06 0.07 0.07 0.06 0.05 0.05 0.05 0.04 0.04 0.03 0.03 0.02 0.03
0.01 0.01 0.01 0.02 0.01 0.01 0.01 0.01 0.01 0.01 0.01 0.01 0.03 0.04 0.04 0.02 0.01 0.00 0.00 0.01 0.01 0.02 0.03 0.05 0.06 0.07 0.07 0.07 0.06 0.06 0.05 0.05 0.05 0.06 0.06 0.05 0.04 0.04 0.03 0.02 0.02 0.02 0.02
0.01 0.01 0.01 0.01 0.02 0.02 0.02 0.01 0.01 0.01 0.02 0.02 0.04 0.03 0.04 0.01 0.00 0.00 0.00 0.01 0.02 0.02 0.03 0.04 0.05 0.06 0.06 0.07 0.06 0.04 0.04 0.04 0.04 0.03 0.04 0.03 0.02 0.02 0.02 0.02 0.01 0.01 0.01
0.02 0.02 0.01 0.01 0.02 0.03 0.03 0.02 0.01 0.01 0.01 0.02 0.04 0.04 0.04 0.02 0.01 0.00 0.01 0.01 0.02 0.02 0.02 0.02 0.02 0.02 0.03 0.04 0.04 0.04 0.03 0.03 0.02 0.02 0.02 0.01 0.01 0.01 0.01 0.01 0.01 0.01 0.01
0.02 0.01 0.01 0.01 0.01 0.02 0.03 0.03 0.02 0.01 0.01 0.02 0.04 0.06 0.04 0.02 0.01 0.01 0.01 0.01 0.02 0.02 0.01 0.01 0.01 0.01 0.01 0.02 0.03 0.04 0.03 0.02 0.01 0.01 0.01 0.01 0.01 0.01 0.01 0.01 0.01 0.01 0.01
0.01 0.02 0.02 0.02 0.02 0.02 0.02 0.02 0.01 0.01 0.01 0.02 0.04 0.04 0.03 0.01 0.01 0.01 0.01 0.01 0.02 0.02 0.02 0.01 0.01 0.01 0.01 0.01 0.02 0.02 0.02 0.01 0.01 0.01 0.01 0.01 0.01 0.01 0.01 0.01 0.01 0.01 0.01
0.01 0.03 0.03 0.03 0.01 0.01 0.01 0.01 0.01 0.01 0.02 0.02 0.02 0.02 0.01 0.00 0.00 0.00 0.00 0.01 0.01 0.01 0.01 0.01 0.01 0.01 0.01 0.01 0.01 0.01 0.01 0.01 0.01 0.01 0.01 0.01 0.01 0.01 0.02 0.01 0.01 0.01 0.01
0.03 0.03 0.03 0.02 0.01 0.01 0.01 0.01 0.01 0.01 0.02 0.02 0.01 0.01 0.00 0.00 0.00 0.00 0.00 0.00 0.00 0.01 0.01 0.00 0.00 0.00 0.00 0.00 0.00 0.00 0.00 0.01 0.01 0.01 0.01 0.01 0.01 0.01 0.01 0.01 0.01 0.00 0.00
0.03 0.03 0.02 0.02 0.01 0.01 0.01 0.01 0.01 0.01 0.01 0.01 0.01 0.01 0.01 0.00 0.00 0.00 0.00 0.00 0.00 0.00 0.00 0.00 0.00 0.00 0.00 0.00 0.00 0.00 0.00 0.00 0.00 0.00 0.00 0.00 0.00 0.00 0.00 0.00 0.00 0.00 0.00
0.03 0.02 0.02 0.02 0.01 0.01 0.01 0.01 0.01 0.01 0.00 0.01 0.00 0.00 0.00 0.01 0.00 0.00 0.00 0.00 0.00 0.00 0.00 0.00 0.00 0.00 0.00 0.00 0.00 0.00 0.00 0.00 0.00 0.00 0.00 0.00 0.00 0.00 0.00 0.00 0.00 0.00 0.00
0.02 0.02 0.02 0.01 0.01 0.01 0.01 0.01 0.00 0.00 0.00 0.00 0.00 0.00 0.00 0.00 0.00 0.00 0.00 0.00 0.00 0.00 0.00 0.00 0.00 0.00 0.00 0.00 0.00 0.00 0.00 0.00 0.00 0.00 0.00 0.00 0.00 0.00 0.00 0.00 0.00 0.00 0.00
0.01 0.01 0.01 0.00 0.00 0.00 0.01 0.00 0.00 0.00 0.00 0.00 0.00 0.00 0.00 0.00 0.00 0.00 0.00 0.00 0.00 0.00 0.00 0.00 0.00 0.00 0.00 0.00 0.00 0.00 0.00 0.00 0.00 0.00 0.00 0.00 0.00 0.00 0.00 0.00 0.00 0.00 0.00
0.01 0.01 0.01 0.01 0.00 0.00 0.00 0.00 0.00 0.00 0.00 0.00 0.00 0.00 0.00 0.00 0.00 0.00 0.00 0.00 0.00 0.00 0.00 0.00 0.00 0.00 0.00 0.00 0.00 0.00 0.00 0.00 0.00 0.00 0.00 0.00 0.00 0.00 0.00 0.00 0.00 0.00 0.00
0.01 0.01 0.01 0.00 0.00 0.00 0.00 0.00 0.00 0.00 0.00 0.00 0.00 0.00 0.00 0.00 0.00 0.00 0.00 0.00 0.00 0.00 0.00 0.00 0.00 0.00 0.00 0.00 0.00 0.00 0.00 0.00 0.00 0.00 0.00 0.00 0.00 0.00 0.00 0.00 0.00 0.00 0.00
0.01 0.00 0.00 0.00 0.00 0.00 0.00 0.00 0.00 0.00 0.00 0.00 0.00 0.00 0.00 0.00 0.00 0.00 0.00 0.00 0.00 0.00 0.00 0.00 0.00 0.00 0.00 0.00 0.00 0.00 0.00 0.00 0.00 0.00 0.00 0.00 0.00 0.00 0.00 0.00 0.00 0.00 0.00
0.00 0.00 0.00 0.00 0.00 0.00 0.00 0.00 0.00 0.00 0.00 0.00 0.00 0.00 0.00 0.00 0.00 0.00 0.00 0.00 0.00 0.00 0.00 0.00 0.00 0.00 0.00 0.00 0.00 0.00 0.00 0.00 0.00 0.00 0.00 0.00 0.00 0.00 0.00 0.00 0.00 0.00 0.00
0.00 0.00 0.00 0.00 0.00 0.00 0.00 0.00 0.00 0.00 0.00 0.00 0.00 0.00 0.00 0.00 0.00 0.00 0.00 0.00 0.00 0.00 0.00 0.00 0.00 0.00 0.00 0.00 0.00 0.00 0.00 0.00 0.00 0.00 0.00 0.00 0.00 0.00 0.00 0.00 0.00 0.00 0.00
0.00 0.00 0.00 0.00 0.00 0.00 0.00 0.00 0.00 0.00 0.00 0.00 0.00 0.00 0.00 0.00 0.00 0.00 0.00 0.00 0.00 0.00 0.00 0.00 0.00 0.00 0.00 0.00 0.00 0.00 0.00 0.00 0.00 0.00 0.00 0.00 0.00 0.00 0.00 0.00 0.00 0.00 0.00
0.00 0.00 0.00 0.00 0.00 0.00 0.00 0.00 0.00 0.00 0.00 0.00 0.00 0.00 0.00 0.00 0.00 0.00 0.00 0.00 0.00 0.00 0.00 0.00 0.00 0.00 0.00 0.00 0.00 0.00 0.00 0.00 0.00 0.00 0.00 0.00 0.00 0.00 0.00 0.00 0.00 0.00 0.00
0.00 0.00 0.00 0.00 0.00 0.00 0.00 0.00 0.00 0.00 0.00 0.00 0.00 0.00 0.00 0.00 0.00 0.00 0.00 0.00 0.00 0.00 0.00 0.00 0.00 0.00 0.00 0.00 0.00 0.00 0.00 0.00 0.00 0.00 0.00 0.00 0.00 0.00 0.00 0.00 0.00 0.00 0.00
0.00 0.00 0.00 0.00 0.00 0.00 0.00 0.00 0.00 0.00 0.00 0.00 0.00 0.00 0.00 0.00 0.00 0.00 0.00 0.00 0.00 0.00 0.00 0.00 0.00 0.00 0.00 0.00 0.00 0.00 0.00 0.00 0.00 0.00 0.00 0.00 0.00 0.00 0.00 0.00 0.00 0.00 0.00
MSLP
1020.81 1020.75 1020.69 1020.64 1020.59 1020.52 1020.45 1020.37 1020.27 1020.17 1020.06 1019.94 1019.82 1019.69 1019.54 1019.38 1019.19 1018.99 1018.78 1018.55 1018.32 1018.09 1017.85 1017.61 1017.36 1017.12 1016.89 1016.69 1016.54 1016.47 1016.52 1016.70 1017.05 1017.58 1018.27 1019.11 1020.05 1021.04 1022.04 1022.98 1023.84 1024.57 1025.17
1020.91 1020.82 1020.72 1020.64 1020.56 1020.48 1020.40 1020.32 1020.24 1020.15 1020.05 1019.94 1019.80 1019.66 1019.48 1019.28 1019.06 1018.81 1018.53 1018.23 1017.91 1017.57 1017.22 1016.86 1016.49 1016.14 1015.83 1015.57 1015.41 1015.37 1015.48 1015.78 1016.28 1016.96 1017.82 1018.82 1019.90 1021.02 1022.11 1023.11 1024.00 1024.75 1025.33
1021.04 1020.92 1020.79 1020.68 1020.58 1020.49 1020.42 1020.35 1020.29 1020.21 1020.13 1020.03 1019.89 1019.73 1019.54 1019.31 1019.03 1018.72 1018.36 1017.97 1017.53 1017.07 1016.58 1016.09 1015.60 1015.14 1014.74 1014.45 1014.29 1014.30 1014.51 1014.94 1015.59 1016.45 1017.48 1018.63 1019.85 1021.06 1022.21 1023.25 1024.14 1024.86 1025.41
1021.22 1021.08 1020.94 1020.81 1020.71 1020.62 1020.56 1020.52 1020.47 1020.42 1020.35 1020.26 1020.14 1019.97 1019.75 1019.49 1019.17 1018.79 1018.35 1017.86 1017.32 1016.73 1016.11 1015.48 1014.88 1014.32 1013.86 1013.54 1013.40 1013.47 1013.78 1014.34 1015.14 1016.15 1017.32 1018.59 1019.90 1021.17 1022.34 1023.37 1024.22 1024.88 1025.36
1021.44 1021.30 1021.17 1021.04 1020.95 1020.89 1020.85 1020.82 1020.80 1020.78 1020.73 1020.65 1020.52 1020.35 1020.12 1019.83 1019.47 1019.05 1018.55 1017.98 1017.35 1016.66 1015.94 1015.21 1014.51 1013.89 1013.38 1013.05 1012.93 1013.06 1013.46 1014.12 1015.02 1016.13 1017.39 1018.72 1020.06 1021.33 1022.46 1023.43 1024.21 1024.78 1025.17
1021.66 1021.55 1021.44 1021.35 1021.29 1021.25 1021.24 1021.25 1021.25 1021.24 1021.20 1021.12 1021.00 1020.82 1020.59 1020.28 1019.91 1019.46 1018.94 1018.33 1017.66 1016.92 1016.14 1015.36 1014.61 1013.95 1013.43 1013.09 1013.00 1013.17 1013.61 1014.33 1015.28 1016.42 1017.70 1019.02 1020.32 1021.52 1022.58 1023.44 1024.11 1024.57 1024.85
1021.86 1021.79 1021.73 1021.68 1021.67 1021.67 1021.70 1021.72 1021.74 1021.74 1021.70 1021.62 1021.49 1021.31 1021.07 1020.78 1020.41 1019.98 1019.47 1018.87 1018.21 1017.48 1016.70 1015.93 1015.18 1014.52 1014.01 1013.69 1013.61 1013.79 1014.25 1014.96 1015.90 1017.01 1018.22 1019.46 1020.65 1021.74 1022.66 1023.39 1023.92 1024.27 1024.43
1022.00 1021.99 1021.99 1022.00 1022.04 1022.09 1022.15 1022.19 1022.21 1022.20 1022.15 1022.06 1021.92 1021.73 1021.50 1021.23 1020.89 1020.50 1020.05 1019.52 1018.92 1018.25 1017.55 1016.83 1016.14 1015.53 1015.05 1014.75 1014.68 1014.85 1015.28 1015.94 1016.80 1017.80 1018.89 1019.99 1021.02 1021.94 1022.71 1023.29 1023.68 1023.91 1023.98
1022.09 1022.15 1022.22 1022.30 1022.39 1022.48 1022.56 1022.61 1022.62 1022.59 1022.52 1022.40 1022.24 1022.05 1021.83 1021.57 1021.29 1020.97 1020.60 1020.17 1019.67 1019.12 1018.53 1017.91 1017.32 1016.78 1016.36 1016.09 1016.02 1016.17 1016.53 1017.10 1017.84 1018.70 1019.62 1020.54 1021.39 1022.12 1022.72 1023.15 1023.42 1023.54 1023.54
1022.18 1022.30 1022.44 1022.58 1022.72 1022.84 1022.93 1022.97 1022.96 1022.90 1022.79 1022.64 1022.46 1022.25 1022.04 1021.82 1021.59 1021.34 1021.07 1020.75 1020.38 1019.97 1019.50 1019.02 1018.53 1018.09 1017.74 1017.51 1017.44 1017.55 1017.85 1018.31 1018.90 1019.59 1020.33 1021.05 1021.70 1022.26 1022.69 1022.99 1023.16 1023.21 1023.17
1022.33 1022.51 1022.70 1022.89 1023.06 1023.20 1023.28 1023.31 1023.27 1023.17 1023.02 1022.83 1022.62 1022.41 1022.20 1022.00 1021.82 1021.64 1021.45 1021.24 1020.99 1020.70 1020.37 1020.01 1019.64 1019.30 1019.01 1018.82 1018.76 1018.84 1019.05 1019.40 1019.86 1020.38 1020.93 1021.47 1021.95 1022.35 1022.64 1022.83 1022.92 1022.93 1022.87
1022.57 1022.80 1023.04 1023.26 1023.45 1023.59 1023.66 1023.66 1023.58 1023.45 1023.26 1023.03 1022.80 1022.57 1022.36 1022.18 1022.03 1021.90 1021.78 1021.64 1021.49 1021.30 1021.07 1020.81 1020.54 1020.28 1020.06 1019.91 1019.85 1019.89 1020.05 1020.30 1020.63 1021.01 1021.41 1021.78 1022.12 1022.38 1022.57 1022.68 1022.72 1022.71 1022.66
1022.93 1023.21 1023.47 1023.70 1023.89 1024.01 1024.05 1024.02 1023.92 1023.75 1023.53 1023.28 1023.03 1022.79 1022.58 1022.41 1022.27 1022.17 1022.07 1021.98 1021.88 1021.74 1021.58 1021.39 1021.19 1020.99 1020.82 1020.70 1020.65 1020.67 1020.78 1020.96 1021.19 1021.46 1021.73 1021.99 1022.20 1022.37 1022.48 1022.54 1022.55 1022.54 1022.50
1023.40 1023.69 1023.96 1024.18 1024.35 1024.44 1024.45 1024.39 1024.25 1024.06 1023.83 1023.58 1023.32 1023.08 1022.88 1022.71 1022.57 1022.46 1022.37 1022.28 1022.19 1022.07 1021.93 1021.77 1021.60 1021.44 1021.31 1021.21 1021.17 1021.19 1021.27 1021.40 1021.57 1021.75 1021.94 1022.10 1022.23 1022.33 1022.39 1022.41 1022.41 1022.39 1022.36
1023.89 1024.19 1024.44 1024.63 1024.76 1024.81 1024.78 1024.69 1024.53 1024.34 1024.11 1023.87 1023.63 1023.40 1023.21 1023.04 1022.90 1022.77 1022.66 1022.55 1022.43 1022.29 1022.14 1021.99 1021.83 1021.69 1021.57 1021.50 1021.47 1021.49 1021.56 1021.67 1021.79 1021.93 1022.05 1022.16 1022.23 1022.28 1022.30 1022.29 1022.28 1022.25 1022.23
1024.32 1024.59 1024.81 1024.95 1025.03 1025.03 1024.96 1024.84 1024.68 1024.49 1024.28 1024.07 1023.86 1023.67 1023.50 1023.34 1023.19 1023.05 1022.91 1022.76 1022.60 1022.43 1022.26 1022.08 1021.92 1021.79 1021.68 1021.63 1021.62 1021.66 1021.73 1021.83 1021.94 1022.04 1022.13 1022.20 1022.23 1022.24 1022.23 1022.20 1022.16 1022.13 1022.10
1024.59 1024.82 1024.98 1025.07 1025.08 1025.03 1024.92 1024.78 1024.62 1024.44 1024.27 1024.10 1023.95 1023.80 1023.66 1023.52 1023.38 1023.23 1023.07 1022.89 1022.69 1022.49 1022.29 1022.10 1021.94 1021.81 1021.73 1021.69 1021.71 1021.76 1021.85 1021.95 1022.06 1022.15 1022.21 1022.25 1022.26 1022.23 1022.19 1022.14 1022.08 1022.02 1021.96
1024.65 1024.83 1024.92 1024.94 1024.89 1024.78 1024.64 1024.48 1024.32 1024.17 1024.04 1023.92 1023.82 1023.73 1023.64 1023.53 1023.41 1023.27 1023.09 1022.90 1022.68 1022.47 1022.25 1022.07 1021.91 1021.81 1021.75 1021.75 1021.79 1021.87 1021.98 1022.09 1022.19 1022.27 1022.32 1022.34 1022.32 1022.27 1022.20 1022.11 1022.02 1021.93 1021.83
1024.50 1024.61 1024.64 1024.59 1024.47 1024.32 1024.15 1023.98 1023.83 1023.71 1023.61 1023.55 1023.50 1023.46 1023.42 1023.35 1023.26 1023.14 1022.98 1022.79 1022.58 1022.37 1022.18 1022.01 1021.89 1021.82 1021.80 1021.84 1021.92 1022.03 1022.15 1022.27 1022.37 1022.44 1022.47 1022.46 1022.41 1022.33 1022.23 1022.12 1021.99 1021.86 1021.72
1024.18 1024.22 1024.19 1024.08 1023.92 1023.74 1023.54 1023.37 1023.23 1023.13 1023.07 1023.04 1023.04 1023.05 1023.05 1023.03 1022.97 1022.88 1022.75 1022.58 1022.41 1022.24 1022.08 1021.96 1021.88 1021.86 1021.89 1021.98 1022.09 1022.23 1022.37 1022.49 1022.58 1022.64 1022.65 1022.61 1022.53 1022.43 1022.29 1022.15 1021.98 1021.81 1021.62
1023.77 1023.76 1023.68 1023.53 1023.34 1023.14 1022.94 1022.77 1022.64 1022.56 1022.52 1022.53 1022.56 1022.60 1022.63 1022.64 1022.62 1022.55 1022.46 1022.34 1022.21 1022.08 1021.98 1021.92 1021.91 1021.95 1022.04 1022.16 1022.31 1022.47 1022.62 1022.74 1022.82 1022.85 1022.83 1022.77 1022.66 1022.52 1022.35 1022.17 1021.97 1021.75 1021.51
1023.36 1023.32 1023.21 1023.05 1022.85 1022.64 1022.45 1022.29 1022.17 1022.10 1022.09 1022.11 1022.15 1022.21 1022.25 1022.28 1022.27 1022.24 1022.18 1022.10 1022.02 1021.95 1021.91 1021.92 1021.97 1022.07 1022.20 1022.37 1022.55 1022.73 1022.88 1022.98 1023.05 1023.05 1023.00 1022.90 1022.75 1022.58 1022.38 1022.16 1021.92 1021.66 1021.38
1023.01 1022.95 1022.84 1022.68 1022.50 1022.31 1022.14 1021.99 1021.89 1021.84 1021.83 1021.85 1021.89 1021.94 1021.98 1022.01 1022.01 1021.99 1021.95 1021.90 1021.86 1021.85 1021.86 1021.93 1022.03 1022.18 1022.37 1022.57 1022.77 1022.95 1023.09 1023.19 1023.22 1023.20 1023.11 1022.97 1022.79 1022.57 1022.34 1022.08 1021.81 1021.51 1021.18
1022.72 1022.67 1022.57 1022.44 1022.29 1022.14 1021.99 1021.87 1021.79 1021.75 1021.73 1021.74 1021.77 1021.80 1021.83 1021.84 1021.83 1021.80 1021.77 1021.75 1021.74 1021.76 1021.82 1021.92 1022.07 1022.26 1022.47 1022.69 1022.91 1023.09 1023.22 1023.30 1023.31 1023.26 1023.14 1022.96 1022.74 1022.49 1022.21 1021.92 1021.61 1021.27 1020.91
1022.45 1022.42 1022.36 1022.27 1022.15 1022.04 1021.93 1021.85 1021.78 1021.74 1021.72 1021.72 1021.73 1021.74 1021.73 1021.72 1021.69 1021.65 1021.62 1021.60 1021.60 1021.64 1021.72 1021.85 1022.03 1022.24 1022.47 1022.71 1022.92 1023.10 1023.23 1023.29 1023.28 1023.20 1023.05 1022.85 1022.60 1022.31 1022.00 1021.67 1021.32 1020.95 1020.56
1022.12 1022.12 1022.10 1022.05 1021.98 1021.91 1021.84 1021.78 1021.74 1021.70 1021.68 1021.67 1021.66 1021.64 1021.61 1021.57 1021.52 1021.47 1021.43 1021.40 1021.40 1021.45 1021.54 1021.68 1021.87 1022.08 1022.32 1022.56 1022.78 1022.96 1023.08 1023.13 1023.12 1023.02 1022.86 1022.63 1022.36 1022.04 1021.70 1021.34 1020.96 1020.56 1020.14
Thickness
5610 5608 5607 5606 5605 5604 5602 5601 5600 5600 5601 5602 5603 5604 5605 5606 5607 5608 5610 5611 5612 5613 5614 5615 5615 5616 5618 5619 5618 5617 5615 5613 5607 5600 5597 5595 5595 5595 5594 5594 5594 5593 5592
5602 5600 5598 5597 5596 5595 5593 5592 5591 5591 5592 5592 5593 5594 5595 5596 5597 5599 5600 5602 5603 5604 5604 5606 5607 5608 5608 5609 5609 5608 5606 5604 5602 5596 5590 5588 5587 5587 5586 5587 5586 5585 5584
5594 5592 5589 5588 5586 5585 5584 5583 5582 5582 5582 5583 5583 5585 5585 5586 5587 5588 5590 5592 5593 5594 5595 5596 5598 5599 5600 5600 5600 5599 5598 5595 5593 5590 5586 5583 5581 5581 5580 5580 5579 5577 5577
5586 5583 5580 5579 5577 5576 5575 5574 5574 5573 5573 5574 5574 5575 5576 5577 5578 5579 5581 5582 5583 5584 5586 5587 5588 5590 5591 5592 5591 5590 5589 5588 5586 5585 5582 5579 5577 5576 5576 5575 5573 5572 5572
5578 5575 5572 5570 5569 5567 5566 5565 5565 5564 5564 5564 5565 5566 5566 5567 5567 5568 5572 5574 5574 5576 5577 5578 5577 5578 5579 5582 5584 5583 5582 5582 5581 5580 5577 5575 5573 5572 5571 5571 5570 5568 5567
5570 5568 5565 5563 5560 5558 5557 5557 5556 5556 5555 5556 5557 5557 5557 5556 5555 5557 5561 5564 5566 5567 5568 5569 5570 5570 5570 5571 5571 5572 5573 5575 5574 5574 5572 5569 5567 5567 5566 5567 5566 5566 5564
5562 5560 5558 5555 5553 5551 5551 5550 5549 5548 5548 5548 5548 5549 5548 5546 5546 5549 5552 5556 5558 5558 5560 5561 5563 5562 5564 5565 5563 5564 5564 5563 5565 5567 5565 5564 5563 5561 5561 5562 5560 5561 5559
5555 5553 5551 5549 5547 5545 5544 5542 5542 5541 5541 5541 5541 5541 5541 5539 5539 5542 5545 5550 5551 5551 5551 5552 5554 5554 5555 5556 5559 5558 5558 5557 5558 5559 5558 5558 5557 5555 5556 5556 5556 5556 5556
5550 5548 5546 5544 5542 5540 5538 5536 5535 5535 5535 5535 5535 5535 5535 5534 5534 5536 5540 5545 5545 5545 5545 5545 5546 5547 5545 5547 5552 5552 5552 5550 5549 5549 5549 5549 5549 5550 5551 5555 5555 5557 5557
5545 5543 5540 5538 5537 5535 5532 5531 5530 5530 5530 5531 5530 5530 5530 5530 5529 5532 5534 5542 5542 5543 5542 5541 5538 5539 5539 5542 5547 5548 5547 5546 5547 5547 5546 5546 5547 5547 5548 5550 5554 5556 5556
5541 5538 5535 5533 5532 5530 5528 5527 5527 5527 5527 5527 5526 5526 5526 5526 5526 5528 5530 5537 5539 5541 5542 5540 5536 5534 5535 5538 5541 5542 5541 5542 5545 5547 5548 5548 5548 5548 5549 5550 5550 5553 5553
5537 5534 5531 5529 5528 5527 5525 5523 5523 5524 5524 5524 5524 5525 5526 5525 5524 5525 5527 5529 5532 5536 5538 5538 5534 5532 5533 5535 5538 5537 5538 5540 5545 5547 5548 5548 5549 5549 5548 5548 5548 5549 5549
5534 5531 5528 5526 5524 5523 5522 5522 5522 5523 5526 5526 5525 5526 5527 5527 5525 5524 5526 5527 5529 5532 5533 5530 5531 5532 5533 5536 5535 5537 5540 5545 5546 5547 5547 5548 5548 5547 5548 5549 5550 5549 5550
5532 5529 5527 5525 5524 5521 5521 5522 5523 5524 5525 5526 5527 5527 5528 5529 5529 5529 5530 5531 5530 5533 5534 5532 5532 5534 5536 5536 5538 5542 5544 5545 5546 5547 5548 5549 5550 5551 5552 5553 5554 5554 5554
5532 5530 5528 5527 5525 5522 5521 5520 5521 5520 5521 5523 5526 5528 5529 5529 5524 5522 5526 5531 5532 5533 5533 5539 5542 5543 5544 5544 5545 5545 5546 5548 5548 5549 5550 5551 5552 5553 5554 5554 5553 5555 5555
5533 5531 5531 5530 5527 5526 5525 5522 5517 5518 5517 5517 5518 5521 5524 5523 5523 5524 5525 5526 5528 5530 5535 5542 5544 5546 5547 5548 5549 5550 5550 5551 5551 5552 5552 5553 5554 5555 5556 5556 5557 5557 5557
5536 5535 5535 5533 5531 5530 5530 5529 5527 5521 5519 5520 5521 5522 5523 5524 5525 5526 5527 5528 5531 5532 5540 5545 5547 5548 5550 5551 5552 5553 5554 5553 5553 5554 5555 5556 5557 5557 5558 5558 5559 5559 5559
5539 5536 5536 5535 5535 5535 5534 5535 5535 5534 5533 5532 5528 5527 5527 5528 5528 5529 5530 5531 5540 5542 5548 5551 5552 5552 5553 5554 5556 5556 5557 5557 5557 5558 5558 5558 5559 5560 5560 5561 5561 5560 5560
5543 5542 5540 5540 5540 5540 5540 5541 5541 5540 5541 5541 5540 5537 5533 5534 5533 5534 5535 5541 5549 5552 5554 5556 5557 5558 5558 5559 5559 5559 5560 5560 5560 5560 5561 5561 5562 5562 5563 5563 5563 5560 5559
5546 5541 5541 5544 5545 5545 5545 5546 5547 5547 5547 5548 5548 5549 5547 5545 5548 5548 5547 5551 5554 5557 5559 5560 5561 5562 5562 5563 5564 5564 5565 5564 5564 5565 5565 5565 5565 5565 5565 5564 5565 5565 5564
5553 5549 5543 5548 5551 5551 5551 5551 5552 5552 5553 5554 5555 5555 5550 5554 5557 5558 5559 5560 5561 5562 5563 5564 5566 5567 5568 5568 5569 5570 5569 5570 5569 5569 5569 5568 5568 5568 5567 5567 5567 5567 5567
5559 5558 5556 5557 5556 5556 5556 5557 5558 5558 5559 5560 5561 5561 5554 5558 5563 5566 5567 5567 5568 5568 5568 5569 5571 5573 5573 5574 5574 5573 5573 5574 5573 5573 5572 5572 5571 5571 5570 5570 5570 5569 5569
5564 5564 5562 5562 5561 5558 5559 5562 5563 5564 5566 5567 5568 5569 5568 5568 5570 5571 5572 5573 5573 5573 5573 5573 5574 5576 5577 5576 5575 5575 5577 5577 5576 5575 5573 5574 5574 5573 5573 5572 5571 5570 5570
5569 5569 5568 5568 5567 5568 5568 5569 5570 5571 5572 5573 5574 5575 5576 5576 5576 5577 5578 5578 5579 5579 5579 5579 5580 5580 5580 5579 5579 5580 5580 5578 5576 5576 5575 5575 5574 5575 5574 5574 5573 5573 5571
5574 5574 5574 5573 5574 5574 5575 5576 5576 5577 5578 5579 5580 5581 5582 5582 5583 5583 5584 5584 5584 5585 5585 5585 5585 5585 5585 5584 5584 5584 5582 5579 5577 5576 5575 5575 5575 5575 5575 5574 5574 5573 5572
5581 5580 5580 5580 5580 5580 5581 5582 5582 5583 5584 5585 5585 5586 5587 5588 5589 5590 5590 5590 5591 5591 5591 5591 5591 5590 5590 5589 5588 5587 5584 5582 5580 5577 5575 5575 5576 5576 5576 5575 5575 5574 5573